EW4107 Weather Reports


Display with metric or nautical units.
time (UTC)temp
F
wind
direction
speed
MPH
gust
MPH
rain 1hr
in
rain 24hr
in
rain mn
in
humidity
%
barometer
mb
20260510093056 52 163 4.0 7.0 0.00 0.39 0.00 1 1009.2
20260510091544 52 158 2.0 8.0 0.00 0.39 0.00 1 1008.8
20260510090035 52 148 4.0 9.0 0.00 0.39 0.00 1 1008.7
20260510084531 52 167 4.0 10.0 0.00 0.51 0.00 1 1008.4
20260510083026 52 154 6.0 12.0 0.00 0.51 0.00 1 1008.5
20260510081524 52 109 6.0 14.0 0.00 0.51 0.00 1 1008.6
20260510080022 52 155 3.0 9.0 0.00 0.51 0.00 1 1008.9
20260510074513 52 134 4.0 8.0 0.00 0.54 0.00 1 1009.4
20260510073009 52 144 4.0 7.0 0.00 0.54 0.00 1 1009.7
20260510071507 52 156 5.0 10.0 0.00 0.54 0.00 1 1009.9
20260510070010 52 201 5.0 8.0 0.00 0.54 0.00 1 1009.8
20260510064501 52 193 4.0 9.0 0.00 0.54 0.00 1 1009.3
20260510063057 52 212 6.0 12.0 0.00 0.54 0.00 1 1009.0
20260510061555 52 184 8.0 11.0 0.00 0.54 0.00 1 1008.8
20260510060053 52 164 6.0 11.0 0.00 0.54 0.00 1 1009.0
20260510054548 51 146 3.0 7.0 0.00 0.54 0.00 1 1009.0
20260510053057 51 163 1.0 6.0 0.00 0.54 0.00 1 1009.3
20260510051544 52 168 3.0 9.0 0.00 0.54 0.00 1 1009.4
20260510050034 53 161 7.0 14.0 0.00 0.54 0.00 1 1009.2
20260510044529 52 158 6.0 12.0 0.00 0.54 0.00 1 1008.9
20260510043039 52 158 7.0 10.0 0.00 0.54 0.00 1 1008.8
20260510041526 53 159 8.0 13.0 0.00 0.54 0.00 1 1008.9
20260510040031 53 175 6.0 13.0 0.00 0.54 0.00 1 1009.1
20260510034515 52 183 3.0 6.0 0.00 0.54 0.54 1 1009.2
20260510033016 53 188 6.0 12.0 0.00 0.54 0.54 1 1009.1
20260510031518 53 159 7.0 13.0 0.00 0.54 0.54 1 1009.1
20260510030013 53 169 5.0 10.0 0.00 0.54 0.54 1 1009.0
20260510024515 53 169 5.0 8.0 0.00 0.54 0.54 1 1009.1
20260510023012 53 142 4.0 9.0 0.00 0.54 0.54 1 1009.0
20260510021523 53 173 4.0 9.0 0.00 0.54 0.54 1 1009.1
20260510020011 53 177 5.0 9.0 0.00 0.54 0.54 1 1009.3
20260510014511 53 171 7.0 11.0 0.00 0.54 0.54 1 1009.0
20260510013014 53 115 5.0 13.0 0.00 0.54 0.54 1 1009.0
20260510011507 53 180 7.0 12.0 0.00 0.54 0.54 1 1008.8
20260510010002 53 144 5.0 10.0 0.00 0.54 0.54 1 1008.8
20260510004601 53 132 4.0 8.0 0.00 0.54 0.54 1 1008.9
20260510003055 53 124 3.0 10.0 0.00 0.54 0.54 1 1008.5
20260510001549 53 134 3.0 7.0 0.00 0.54 0.54 1 1008.2
20260510000051 53 157 6.0 10.0 0.00 0.54 0.54 1 1008.2
20260509234543 54 184 6.0 13.0 0.00 0.54 0.54 1 1007.7
20260509233040 54 172 6.0 10.0 0.00 0.54 0.54 1 1007.7
20260509231540 54 113 5.0 10.0 0.00 0.54 0.54 1 1007.6
20260509230034 54 150 8.0 12.0 0.00 0.54 0.54 1 1007.8
20260509224527 54 169 8.0 16.0 0.00 0.54 0.54 1 1007.7
20260509223026 54 152 4.0 10.0 0.00 0.54 0.54 1 1008.1
20260509221522 54 161 7.0 14.0 0.00 0.54 0.54 1 1007.9
20260509220021 54 161 8.0 13.0 0.00 0.54 0.54 1 1007.9
20260509214515 54 183 6.0 13.0 0.00 0.54 0.54 1 1008.1
20260509213023 54 173 6.0 11.0 0.00 0.54 0.54 1 1008.0
20260509211508 54 178 5.0 16.0 0.00 0.54 0.54 1 1008.2
20260509210002 54 206 8.0 14.0 0.00 0.54 0.54 1 1008.4
20260509204558 54 194 6.0 11.0 0.00 0.54 0.54 1 1008.5
20260509203102 54 207 7.0 14.0 0.00 0.54 0.54 1 1008.7
20260509201548 54 221 9.0 16.0 0.01 0.54 0.54 1 1008.7
20260509200045 54 218 10.0 15.0 0.02 0.54 0.54 1 1008.9
20260509194540 54 209 10.0 19.0 0.04 0.54 0.54 1 1009.1
20260509193037 54 205 8.0 16.0 0.05 0.54 0.54 1 1009.4
20260509191545 54 246 8.0 21.0 0.06 0.53 0.53 1 1009.4
20260509190030 54 151 5.0 9.0 0.06 0.52 0.52 1 1009.3
20260509184534 54 182 5.0 8.0 0.04 0.50 0.50 1 1009.4
20260509183029 53 168 5.0 8.0 0.03 0.48 0.48 1 1009.5
20260509181516 54 152 3.0 7.0 0.03 0.47 0.47 1 1009.5
20260509180015 53 128 4.0 10.0 0.03 0.46 0.46 1 1009.4
20260509174510 53 86 4.0 8.0 0.04 0.46 0.46 1 1009.5
20260509173003 53 86 2.0 4.0 0.04 0.45 0.45 1 1009.7
20260509171600 52 86 2.0 4.0 0.03 0.44 0.44 1 1009.8
20260509170100 51 86 3.0 6.0 0.03 0.43 0.43 1 1010.0
20260509164551 51 86 2.0 4.0 0.02 0.42 0.42 1 1010.3
20260509163046 50 86 0.0 2.0 0.02 0.41 0.41 1 1010.4
20260509161541 50 86 1.0 3.0 0.02 0.41 0.41 1 1010.6
20260509160038 50 86 0.0 3.0 0.01 0.40 0.40 1 1010.7
20260509154533 49 86 0.0 2.0 0.02 0.40 0.40 1 1010.8
20260509153042 48 86 1.0 3.0 0.01 0.39 0.39 1 1010.9
20260509151524 48 86 0.0 2.0 0.02 0.39 0.39 1 1011.1
20260509150023 47 86 1.0 3.0 0.02 0.39 0.39 1 1011.3
20260509144529 47 86 0.0 2.0 0.02 0.38 0.38 1 1011.3
20260509143020 47 86 1.0 4.0 0.02 0.38 0.38 1 1011.5
20260509141515 47 86 1.0 3.0 0.01 0.37 0.37 1 1011.3
20260509140013 47 86 1.0 3.0 0.01 0.37 0.37 1 1011.1
20260509134507 47 86 0.0 3.0 0.00 0.36 0.36 1 1010.9
20260509133004 47 86 0.0 2.0 0.00 0.36 0.36 1 1010.9
20260509131600 47 86 1.0 2.0 0.00 0.36 0.36 1 1011.0
20260509130105 46 86 0.0 3.0 0.00 0.36 0.36 1 1011.1
20260509124554 47 86 1.0 6.0 0.00 0.36 0.36 1 1011.3
20260509123044 47 86 0.0 2.0 0.00 0.36 0.36 1 1011.2
20260509121539 46 86 1.0 6.0 0.00 0.36 0.36 1 1011.1
20260509120035 46 86 2.0 6.0 0.00 0.36 0.36 1 1011.2
20260509114531 46 86 2.0 4.0 0.00 0.36 0.36 1 1011.3
20260509113027 45 86 1.0 6.0 0.01 0.36 0.36 1 1011.4
20260509111522 45 104 5.0 9.0 0.03 0.36 0.36 1 1011.3
20260509110017 45 78 5.0 11.0 0.06 0.36 0.36 1 1011.3
20260509104514 45 73 3.0 9.0 0.08 0.36 0.36 1 1011.4
20260509103009 44 84 4.0 9.0 0.11 0.35 0.35 1 1011.5
20260509101510 44 105 2.0 7.0 0.15 0.33 0.33 1 1011.7
20260509100104 44 76 3.0 8.0 0.15 0.30 0.30 1 1011.7
20260509094605 44 71 3.0 5.0 0.15 0.28 0.28 1 1011.6